Regional Weather Roundup
Issued by NWS Midland/Odessa, TX

Skip options and go directly to product.
Home | Oldest Version | Previous Version | Current Version | All | Text Only | Save Text | Print | Product List | Glossary On

Skip product version selection by date and time.   
017
ASUS44 KMAF 300801
RWRMAF
MIDLAND AREA WEATHER ROUNDUP
NATIONAL WEATHER SERVICE MIDLAND TX
200 AM CST FRI JAN 30 2015

...IN SOUTHWEST TEXAS AND SOUTHEAST NEW MEXICO...

CITY           SKY/WX    TMP DP  RH WIND       PRES   REMARKS
ALPINE         CLOUDY    43  32  64 NE10      30.46F WCI  37
ANDREWS        DRIZZLE   41  32  70 E8        30.45F WCI  36
ARTESIA        CLOUDY    45  32  61 NE6       30.45F
BIG SPRING     CLOUDY    46  24  42 NE15G22   30.47F WCI  39
CARLSBAD       CLOUDY    47  31  53 SE7       30.44F
DRYDEN           N/A     54  34  46 NE13      30.38F
FORT STOCKTON  CLOUDY    47  28  47 E12       30.42F
GUAD PASS      CLOUDY    35  32  88 NE40      30.36F WCI  20
HOBBS          CLOUDY    43  25  49 NE6       30.45S WCI  39
MARFA          CLOUDY    43  32  65 NE10      30.39F WCI  37
MIDLAND AIRPK  CLOUDY    47  30  51 E9        30.45F
MIDLAND INTL   CLOUDY    46  28  49 NE16      30.44F WCI  39
ODESSA         CLOUDY    44  30  57 NE12      30.44F WCI  38
PECOS          CLOUDY    48  34  58 NE8       30.44F
PRESIDIO       FAIR      57  37  48 NE16G23   30.30F
SEMINOLE       CLOUDY    43  28  54 E7        30.46F WCI  39
SNYDER         CLOUDY   N/A N/A N/A NE9       30.48F
WINK           CLOUDY    45  30  55 NE7       30.43F
$$
...OTHER STATIONS IN TEXAS...

CITY           SKY/WX    TMP DP  RH WIND       PRES   REMARKS
ABILENE        CLOUDY    45  29  53 NE7       30.47S
AMARILLO       CLOUDY    37  28  70 SE6       30.48F WCI  32
AUSTIN         CLOUDY    54  36  50 NE16      30.39S
BROWNSVILLE    MOCLDY    61  60  97 NE5       30.26S
CORPUS CHRISTI MOCLDY    58  57  97 N5        30.29S
DALLAS FTW     CLOUDY    47  31  53 NE12      30.47S
DEL RIO        CLOUDY    60  38  43 NE5       30.35R
EL PASO        LGT RAIN  45  40  82 NE8       30.33F
HOUSTON INT    MOCLDY    58  42  55 N12       30.33R
LUBBOCK        CLOUDY    40  29  64 NE3       30.45F
SAN ANGELO     CLOUDY    48  33  56 NE12      30.45R
SAN ANTONIO    MOCLDY    56  37  49 VRB6      30.36S
WACO           MOCLDY    47  34  60 N9        30.44S
WICHITA FALLS  NOT AVBL
$$
...OTHER LOCATIONS IN NEW MEXICO...

CITY           SKY/WX    TMP DP  RH WIND       PRES   REMARKS
ALAMAGORDO     CLOUDY    48  32  53 N7        30.32F
ALBUQUERQUE    LGT SNOW  36  29  75 E16       30.39F WCI  26
CANNON AFB     CLOUDY    38  29  69 CALM      30.45F
CLOVIS         CLOUDY    37  28  70 E3        30.46F
HOLLOMAN AFB   CLOUDY    47  35  64 N6        30.30F
ROSWELL        CLOUDY    44  31  60 SW5       30.44F
RUIDOSO        CLOUDY    32  23  69 SE14      30.44F WCI  22
SANTA FE       CLOUDY    38  14  37 SE15      30.41S WCI  29
TRUTH OR CONSE CLOUDY    43  37  79 NE7       30.31F WCI  39
TUCUMCARI      CLOUDY    38  33  82 CALM      30.44F
$$

USA.gov is the U.S. government's official web portal to all federal, state and local government web resources and services.